Theta_e
347 344 342 342 342 344 343 348 351 348 348 343 346 344 346 350 348 345 346 347 348 342 345 343 341 345 341 347 350 350 351 351 352 351 351 349 345 348 351 352 349 350 346
348 347 347 344 343 342 342 344 347 349 347 349 346 349 349 348 344 342 343 349 352 349 347 346 350 350 347 339 345 349 347 351 348 349 350 351 347 352 353 353 352 347 346
335 344 348 349 348 345 343 343 344 345 340 348 352 350 345 347 351 347 345 344 350 348 350 348 348 348 348 347 343 343 344 347 349 352 352 352 351 353 352 351 351 349 343
337 346 348 348 350 348 349 350 348 348 346 337 340 339 347 348 347 347 348 349 347 346 350 352 353 350 349 347 349 348 344 344 348 349 347 348 352 349 347 344 345 344 341
337 339 346 348 348 349 350 351 353 354 353 350 344 340 340 339 341 347 345 347 346 348 348 345 350 351 351 351 351 350 348 341 349 349 351 350 350 349 346 342 337 332 327
343 346 344 341 341 349 349 350 353 353 352 352 352 349 346 346 346 341 342 349 352 350 348 349 350 346 349 352 349 345 342 341 333 336 338 338 330 329 330 331 333 332 330
337 340 342 345 347 347 348 348 348 351 352 352 353 352 351 350 349 347 347 347 347 349 351 352 351 350 348 348 352 355 353 350 349 347 347 341 334 332 339 340 340 340 336
332 333 331 330 340 342 344 348 348 348 349 349 352 352 353 353 353 350 348 349 347 345 345 345 346 347 348 347 349 350 349 349 351 352 350 347 342 337 344 347 347 341 333
325 328 329 327 326 328 336 340 344 348 350 349 351 351 351 352 352 352 351 348 348 348 345 344 342 341 340 340 340 339 344 345 344 345 343 341 338 340 341 345 341 341 334
319 317 316 318 324 327 326 325 325 333 339 341 342 344 348 350 350 351 350 350 351 353 351 351 350 349 348 347 346 345 345 340 335 333 332 332 333 336 338 338 336 337 335
315 315 316 316 315 317 322 323 320 322 322 323 328 338 341 340 342 345 347 348 348 348 349 349 351 352 352 351 351 352 351 350 349 345 341 339 339 340 340 340 339 342 341
309 309 309 311 312 314 315 316 316 317 319 323 324 323 328 335 337 340 342 346 347 347 348 349 350 351 351 352 354 353 352 351 351 351 349 345 342 341 344 347 347 347 345
308 308 307 308 308 309 310 312 315 317 321 325 328 328 326 324 328 329 340 343 346 347 347 347 349 350 350 349 349 351 352 352 352 351 349 347 347 346 346 347 349 349 350
304 304 305 306 308 311 312 313 314 318 322 325 328 330 328 323 323 323 321 324 333 341 345 346 346 346 346 349 349 347 346 348 349 349 350 351 351 351 351 351 351 351 350
305 305 306 307 310 312 312 313 315 316 319 321 322 323 322 322 321 321 322 323 321 322 324 327 329 336 338 345 345 346 346 346 345 346 348 348 348 349 349 349 350 350 351
306 306 307 309 310 311 312 313 311 312 316 318 319 321 321 321 322 322 324 325 325 323 321 321 321 319 318 320 329 337 342 345 348 347 347 348 351 352 351 351 351 352 351
305 306 307 309 311 312 313 314 315 313 311 314 318 321 321 322 322 323 324 324 324 326 326 324 321 319 320 321 328 338 340 341 341 341 341 340 342 347 352 352 349 348 348
304 304 306 307 308 311 311 311 313 314 315 314 316 316 317 319 322 322 322 322 322 325 327 326 321 320 319 320 328 337 343 345 344 344 344 344 342 345 346 347 347 345 346
304 303 304 304 305 306 307 308 309 309 312 314 314 316 317 317 319 320 321 321 322 326 327 326 321 316 317 318 321 323 337 339 344 346 344 344 343 345 343 343 343 341 338
303 303 303 303 303 304 303 306 308 309 310 310 313 314 315 316 318 319 321 323 326 327 327 324 322 322 315 317 319 323 329 334 340 342 340 344 347 344 345 341 341 340 339
299 299 300 301 301 302 303 304 305 307 308 309 310 312 313 315 316 317 318 322 327 325 323 321 321 320 316 316 319 321 326 329 337 340 340 341 344 345 344 343 343 339 342
299 299 299 299 299 300 300 301 302 303 305 307 308 309 310 312 314 316 317 320 322 322 321 320 320 316 315 317 318 320 324 326 328 336 338 339 339 338 340 341 341 342 343
299 299 298 297 297 297 298 299 300 300 301 304 305 306 308 309 309 313 315 316 318 318 318 319 319 317 316 316 317 319 321 326 328 332 335 337 338 338 338 337 338 340 341
299 299 298 298 297 296 296 295 296 297 298 300 302 303 305 307 308 310 311 313 313 313 313 313 314 314 314 316 317 318 320 323 327 329 332 334 337 337 338 338 337 338 338
299 299 298 297 297 296 295 295 294 295 295 296 298 298 300 303 304 306 308 310 309 309 310 311 312 313 312 312 314 316 319 321 325 329 331 333 333 335 337 336 336 337 337
299 299 298 297 296 296 295 295 294 293 293 294 295 296 297 299 301 304 305 306 307 308 309 309 310 310 310 311 313 315 317 320 322 323 327 330 331 333 333 334 335 336 337
Wind_Speed
20 19 20 19 18 20 22 15 13 15 6 4 9 9 14 11 9 9 11 11 9 9 11 11 11 11 14 11 10 9 11 12 13 17 17 19 16 13 10 13 16 14 16
8 20 22 21 20 21 22 20 17 17 14 10 8 15 11 9 4 5 9 13 7 7 7 15 14 12 13 13 18 16 16 13 15 16 18 15 11 11 15 14 12 11 14
27 21 22 24 21 21 22 24 19 18 18 17 12 17 13 10 12 10 7 7 12 10 6 7 8 9 8 7 10 14 15 16 16 17 19 17 15 15 14 10 8 12 13
15 13 20 25 22 21 22 21 20 17 17 21 21 18 15 15 16 13 11 12 10 14 14 13 10 10 10 11 13 14 14 16 19 21 19 15 13 14 16 17 17 18 14
2 17 16 23 17 22 21 21 22 21 19 17 17 19 18 18 18 17 16 15 14 15 16 15 15 15 14 15 16 18 17 16 16 18 19 18 17 19 20 20 19 21 18
13 14 17 14 23 20 24 24 24 22 23 22 20 19 20 19 19 18 16 16 17 18 17 16 15 16 18 18 19 20 16 17 19 22 23 24 21 19 18 20 21 22 23
15 10 4 10 19 19 18 22 23 27 27 25 24 23 23 22 22 20 19 22 22 22 22 22 21 19 20 19 18 21 25 23 21 21 24 24 25 20 16 17 18 21 22
14 13 12 11 5 1 6 8 9 17 24 26 25 24 24 24 23 24 25 26 27 27 28 29 29 29 28 24 23 27 27 26 24 24 24 23 20 20 19 21 22 25 27
10 9 9 10 10 7 5 3 10 12 13 15 18 23 23 24 25 26 27 27 29 32 32 32 32 32 32 31 32 32 33 33 31 31 32 32 30 27 24 25 27 28 33
4 5 5 5 6 6 7 6 7 4 6 11 11 13 15 19 19 22 22 25 29 32 29 30 31 32 34 33 33 33 36 36 37 37 39 38 37 37 35 34 32 32 32
6 6 5 4 3 4 5 7 8 7 7 8 8 9 12 16 16 16 19 21 23 28 32 32 29 29 29 29 28 28 31 30 32 34 35 35 34 33 32 31 31 30 31
8 9 10 10 9 9 9 9 10 10 10 11 11 10 8 8 10 14 18 16 21 26 28 29 30 32 33 32 28 26 29 32 38 41 42 42 41 40 36 33 33 32 32
11 11 11 10 11 12 12 12 12 12 12 13 17 19 15 12 12 13 14 17 19 22 25 27 31 34 35 35 35 38 39 39 37 36 36 40 42 42 42 40 38 37 39
11 11 11 10 9 8 9 10 11 11 11 12 14 17 23 22 18 18 19 18 21 25 24 26 28 32 35 35 34 31 30 33 40 46 48 47 46 44 44 44 44 43 43
11 11 10 10 11 13 13 14 13 12 12 18 18 21 24 26 23 23 22 22 23 25 26 27 29 31 32 35 35 35 33 33 33 33 35 38 42 47 49 48 47 44 41
12 10 10 11 12 13 14 16 15 17 20 19 18 23 24 26 24 23 24 23 23 25 27 27 29 28 29 29 33 35 36 35 35 35 37 36 36 37 38 39 38 39 39
15 14 14 12 12 13 13 16 20 20 18 21 20 17 22 21 21 24 22 25 26 26 28 28 27 26 26 25 26 27 31 33 36 39 38 36 37 37 35 33 32 33 34
16 15 14 16 18 19 20 22 24 26 26 25 18 20 24 24 24 26 25 31 31 29 28 29 25 25 25 26 23 24 26 28 28 32 35 33 33 34 39 35 33 35 29
18 19 19 21 21 21 22 24 23 25 29 31 31 24 21 25 27 25 28 30 31 28 26 28 27 29 28 28 27 27 25 28 26 26 29 33 32 36 33 32 35 43 43
16 18 21 21 23 25 27 23 23 24 26 29 33 28 27 25 27 26 26 30 26 27 28 30 34 38 37 32 30 28 26 27 27 31 33 30 35 33 33 26 25 34 37
17 18 19 21 23 24 23 24 26 26 26 31 31 30 30 26 27 27 26 26 26 29 29 32 35 39 38 36 33 31 27 28 29 32 29 26 22 26 32 35 39 43 41
20 19 20 22 24 25 24 26 28 28 31 32 34 33 34 34 30 27 26 20 21 24 24 26 33 35 37 37 36 34 32 29 29 32 33 31 28 28 29 28 27 31 31
16 19 21 22 23 25 27 29 30 32 31 32 31 31 28 34 36 33 32 31 30 28 28 31 38 41 41 39 36 33 34 31 31 32 34 34 32 29 29 30 30 29 28
14 21 23 26 28 27 28 28 27 29 32 35 34 33 32 28 30 36 37 36 38 39 40 39 41 46 44 40 37 33 33 32 32 32 33 35 35 34 29 31 33 31 31
15 17 21 27 28 28 29 30 29 28 31 30 31 37 42 41 38 34 38 40 39 40 41 42 41 43 41 36 34 33 32 31 31 30 31 34 32 33 32 31 30 29 26
14 17 21 25 26 30 31 32 31 29 26 28 28 31 33 34 36 40 45 46 45 44 44 42 39 37 34 33 33 31 31 30 29 25 26 28 27 26 26 26 24 23 24
Wind_Direction
197 214 217 208 209 207 212 198 212 221 213 188 202 185 194 201 217 226 209 203 212 217 228 232 236 244 243 232 231 235 252 263 283 284 295 298 305 333 346 344 358 352 2
223 225 221 217 210 212 214 215 218 228 222 215 217 200 202 187 201 202 221 227 228 225 231 232 241 256 274 260 241 250 257 263 288 291 294 303 338 349 332 320 322 338 349
285 253 220 221 213 211 215 220 217 219 229 218 207 213 222 216 227 225 211 217 244 253 247 243 249 252 266 283 275 268 263 261 271 289 293 304 320 334 331 322 314 315 327
247 277 226 217 211 221 223 214 215 213 218 223 230 239 231 234 236 233 240 230 228 243 253 254 256 276 288 290 290 298 295 277 271 277 286 296 296 319 311 316 312 313 315
235 261 250 217 218 216 219 223 218 217 229 228 226 226 230 230 234 238 243 245 254 259 253 249 257 263 274 282 278 288 295 287 281 282 287 288 292 294 298 311 313 309 314
207 221 234 242 264 234 217 214 216 218 222 228 234 239 237 237 242 244 241 247 258 265 268 257 254 251 256 263 276 286 294 286 284 281 285 287 292 297 303 308 312 318 320
88 98 151 204 222 237 240 223 214 219 220 223 230 233 237 241 245 243 234 247 252 254 261 270 273 265 261 259 264 276 276 277 279 284 286 289 294 301 304 309 311 310 310
82 81 82 71 80 218 266 263 235 224 227 226 229 234 239 243 243 241 238 240 246 250 252 257 264 270 272 271 267 269 272 274 273 274 279 288 292 297 296 303 302 302 306
85 80 67 61 62 55 49 340 265 254 258 240 231 230 229 238 244 248 251 247 249 250 252 257 261 265 266 269 271 268 269 272 277 278 280 283 286 288 289 289 289 296 301
52 48 52 47 46 35 42 33 8 352 286 286 279 277 264 254 249 251 254 259 256 261 262 262 262 267 270 270 272 274 276 276 278 280 281 282 282 282 282 280 283 285 291
322 318 316 323 324 330 329 330 338 343 342 341 328 294 280 276 270 271 265 261 264 266 266 267 267 270 270 269 267 271 276 283 282 282 283 284 284 283 284 283 281 278 280
311 309 309 309 306 304 304 305 312 323 329 325 322 323 321 312 308 279 264 270 264 263 265 263 264 263 262 259 259 259 263 269 270 272 274 277 281 283 285 288 292 290 284
311 309 305 302 307 308 303 301 300 311 321 327 320 315 312 308 313 315 303 273 271 267 269 267 269 269 269 270 267 261 262 266 269 271 273 273 274 279 282 284 287 287 286
307 311 321 324 324 324 318 319 312 299 296 294 299 300 300 304 296 294 293 291 291 283 281 277 276 279 276 276 275 273 274 276 273 273 272 273 277 277 279 282 284 288 290
320 318 310 303 303 302 298 296 289 275 285 304 282 287 293 297 305 309 301 292 289 287 287 291 291 288 288 285 287 289 286 287 286 286 283 282 278 277 278 281 284 286 284
323 320 322 314 306 307 303 298 283 274 263 263 286 281 285 292 298 303 303 307 301 293 289 291 291 296 302 305 296 288 284 285 284 287 288 290 288 281 279 280 284 284 282
318 320 314 316 312 316 312 307 310 294 281 267 268 271 276 286 293 296 294 296 300 301 302 300 294 296 301 308 309 299 294 291 286 282 283 283 281 280 276 275 277 285 280
318 317 314 309 296 293 294 294 290 296 299 297 295 290 284 279 291 290 286 294 286 289 296 298 296 295 299 302 310 312 313 306 296 289 285 287 284 276 274 277 280 258 271
331 324 318 309 308 305 296 289 292 294 286 285 285 286 298 284 286 288 274 290 288 278 284 291 296 301 299 299 302 300 293 287 306 293 293 288 286 281 282 277 271 259 277
316 316 314 313 303 299 300 309 304 296 295 290 282 289 294 285 283 287 293 291 274 271 279 287 293 300 299 296 297 296 296 289 291 286 293 297 280 276 271 264 276 263 260
329 327 321 310 307 304 302 295 287 290 291 286 284 277 277 279 287 301 290 282 256 257 270 283 293 296 293 293 293 291 289 286 279 284 290 284 284 275 275 275 272 274 280
334 330 324 317 311 305 300 292 290 291 281 286 288 282 281 275 280 290 283 277 262 263 271 284 289 293 293 292 292 290 287 284 283 278 279 281 282 285 281 282 279 270 265
333 328 331 331 324 313 299 290 283 282 283 278 279 280 285 278 276 274 276 276 277 279 280 285 289 297 297 293 291 291 287 282 281 281 279 277 276 280 280 281 281 278 277
317 322 328 335 333 330 324 313 297 288 282 275 275 275 272 276 280 274 274 274 276 285 290 292 288 292 294 293 293 293 289 282 277 276 278 276 275 276 277 278 274 274 275
313 322 325 321 327 325 325 325 309 298 293 293 287 273 270 266 268 274 275 275 281 287 289 289 287 288 292 297 298 296 293 288 281 274 274 274 274 275 272 275 276 274 274
314 319 322 323 318 318 320 321 319 311 302 296 291 288 286 281 277 274 273 277 279 281 283 285 283 287 293 296 297 295 292 288 284 280 274 270 267 264 267 268 264 260 264